CAPE
1508 1730 1722 1890 1794 1642 1576 1474 1340 1323 1318 1365 1464 1408 1484 1617 1591 1698 1790 1898 1949 1982 1884 1836 1688 1459 1492 1677 1520 1487 1422 1300 1274 1241 1186 1121 1050 1018 917 1057 1167 1177 1243 1316 1315 1444 1383 1332 1188 1167 1161 1175 998 882 932 701 676 955 1001 876 1011 1404 1431 1334 1268 1123 937 532 261 335 404 445 141 118 110 215 251 330 287 236 88 14 107 185 135
1357 1847 1456 1667 1692 1752 1578 1462 1349 1484 1460 1416 1377 1326 1382 1504 1512 1436 1666 1745 1632 1604 1504 1419 1508 1435 1599 1590 1579 1594 1571 1450 1267 1260 1210 1123 1026 926 792 709 830 1084 1141 1258 1370 1389 1244 1110 1054 1237 1223 1128 1124 1021 902 816 815 735 689 704 778 972 935 874 956 783 624 524 534 612 420 461 524 540 458 416 312 234 120 169 130 51 133 38 0
1878 1854 1671 1400 1800 1727 1642 1593 1488 1416 1391 1380 1369 1314 1372 1360 1505 1490 1376 1291 1324 1354 1313 1556 1423 1460 1602 1668 1704 1607 1500 1409 1291 1323 1232 1080 979 925 931 829 808 823 773 798 1110 1156 1113 1094 1077 999 1240 1164 1006 908 786 758 716 794 679 639 685 711 827 730 612 563 538 559 440 242 358 450 496 484 454 248 158 36 30 84 92 45 39 65 2
1947 2051 1906 1827 1838 1769 1672 1525 1601 1356 1391 1446 1493 1477 1440 1426 1310 1220 1240 1350 1480 1540 1554 1658 1654 1634 1612 1627 1625 1637 1581 1507 1465 1484 1390 1303 1272 1060 860 732 664 600 709 848 1029 1075 991 1120 1021 966 919 946 917 807 744 768 683 780 684 689 684 695 730 840 950 1015 865 928 774 570 582 444 199 119 118 183 155 106 6 3 22 102 74 106 4
1736 1798 1903 1565 1484 1773 1663 1590 1634 1706 1714 1672 1593 1605 1621 1534 1406 1345 1433 1442 1573 1579 1552 1599 1594 1691 1709 1699 1649 1551 1564 1541 1545 1485 1464 1367 1231 982 840 762 750 841 955 1055 977 928 977 1012 952 848 861 776 859 863 721 776 812 770 763 725 786 729 737 825 855 832 774 786 697 282 367 333 431 467 493 369 310 311 266 287 192 136 160 134 6
1876 1938 1934 1850 1495 1640 1809 1763 1735 1833 1817 1726 1682 1741 1746 1691 1677 1697 1657 1721 1776 1805 1720 1595 1710 1842 1810 1686 1589 1494 1298 1341 1304 1340 1504 1395 1471 1197 1118 1225 1211 1249 1000 739 727 839 780 848 954 832 802 829 914 809 839 872 791 753 850 834 778 738 733 702 807 772 675 626 470 444 337 307 257 314 320 203 293 195 159 165 128 113 276 257 2
1923 1945 1979 1850 1644 1576 1772 1834 1828 1924 1909 1830 1797 1817 1898 1841 1882 1913 1801 1953 2000 1935 1907 1839 1858 1884 1645 1492 1447 1415 1361 1432 1420 1394 1399 1470 1519 1502 1367 1257 1231 1160 763 575 760 824 838 1025 1039 1056 938 946 820 969 832 710 682 864 934 901 900 832 778 695 618 594 573 463 447 466 477 479 345 303 371 316 222 204 278 282 239 195 186 176 4
2048 1844 2001 2007 1748 1843 1754 1928 1792 1857 1858 1922 1771 1823 1962 1984 2025 2014 2067 2071 2060 2021 1940 1850 1823 1693 1587 1594 1534 1548 1563 1551 1546 1526 1569 1542 1567 1388 1337 908 841 882 1032 1109 969 1053 1021 994 1034 1120 1072 1129 1230 1110 866 738 829 870 1026 1258 928 826 716 638 556 538 449 337 473 596 624 624 589 462 274 219 249 236 215 193 133 124 130 85 65
1696 1911 1960 2002 1836 1945 1888 1845 1898 1896 1950 1827 1826 1873 1831 1915 1983 1925 2000 2068 2030 1972 1922 1880 1745 1698 1668 1599 1374 1397 1472 1581 1488 1710 1644 1552 1521 1557 1475 1275 1157 1338 1416 1355 1170 1047 1023 1040 1084 1209 1364 1384 1315 1182 896 670 1232 1268 1295 1296 1122 693 605 619 584 436 440 418 519 624 550 637 692 628 303 235 195 326 370 242 30 44 40 37 60
1791 1886 1960 2067 1970 2086 1879 1854 2045 2034 2014 1893 1886 1898 1874 1948 2025 2071 1997 1992 1956 1915 1868 1860 1777 1698 1669 1481 1328 1370 1379 1404 1591 1474 1754 1540 1684 2231 1884 1564 1516 1579 1546 1534 1442 1204 1143 1134 1164 1401 1520 1438 1344 1287 1174 1282 1287 1262 1189 1151 1088 943 962 676 490 516 434 530 583 720 780 598 515 488 422 452 264 139 46 64 207 174 171 265 167
1840 1836 1877 2036 1934 2006 1955 2059 2174 1988 1858 2020 2026 2004 2060 2135 2168 2102 2078 2116 2081 2012 2033 2004 1964 1837 1630 1504 1400 1512 1383 1484 1416 1587 1518 1686 2033 2208 1935 1734 1639 1588 1364 1302 1369 1431 1312 1245 1432 1466 1364 1247 1262 1297 1345 1286 1126 1053 928 824 897 963 1032 1099 744 478 539 513 790 964 672 469 436 462 343 246 244 298 293 264 278 246 243 159 230
1780 1924 2041 1998 1886 1865 1995 2051 2137 2131 1922 1979 1978 1860 2139 2201 2180 2180 2156 2188 2147 2083 2107 2162 2030 1861 1738 1474 1294 1443 1680 1742 1718 1735 1696 1836 2191 2083 1876 1680 1463 1308 1304 1386 1565 1641 1559 1489 1498 1209 1265 1296 1277 1258 1263 1113 966 875 890 1058 1105 1119 1012 1000 573 556 579 633 764 841 716 514 680 556 460 376 302 217 328 303 272 279 272 302 226
1762 1974 1980 1999 1866 1921 2048 2079 2034 1989 1783 1540 1597 1682 2060 2181 2193 2132 2225 2252 2253 2196 2112 2063 2132 2052 1972 1810 1774 1822 1669 1664 1704 1699 1863 1956 1900 1833 1695 1476 1382 1370 1452 1578 1743 1598 1435 1307 1409 1327 1231 1251 1259 1220 1104 915 736 729 1110 1230 1106 1001 987 1006 543 620 540 755 688 812 764 884 801 569 479 390 424 372 290 328 416 363 180 305 239
1836 1883 1863 2036 2238 1541 2114 2127 2067 2078 1932 1952 1964 1705 2047 2338 2353 2340 2299 2293 2317 2227 2107 2120 2120 2070 2066 1987 1831 1825 1794 1745 1807 1864 1879 2001 2036 1736 1746 1580 1605 1545 1546 1345 1368 1445 1333 1224 1017 1003 1014 1048 998 1034 1020 849 737 918 1258 1389 1070 955 1161 976 561 713 685 696 868 734 797 822 725 619 550 500 425 463 328 292 418 378 270 208 188
1930 1849 1953 2137 1601 1623 1743 2082 2062 1807 1946 1602 1706 2028 2292 2265 2209 2184 2210 2245 2268 2208 2179 2122 2126 2062 1939 1908 1966 1840 1769 1732 1641 1701 1772 1889 1958 1917 1897 1945 1912 1704 1595 1378 1295 1278 1211 1184 1090 908 884 909 991 1020 1012 1011 1036 1250 1470 1469 1043 1055 1005 775 539 805 730 726 793 588 656 776 862 856 547 496 428 337 344 386 230 214 181 187 230
1883 1834 1754 1638 1656 1529 1805 2001 2017 2027 1941 1986 2105 1924 2261 2326 2266 2294 2260 2233 2171 2169 2234 2208 2145 2070 2076 2026 1992 1957 1772 1671 1663 1655 1652 1781 1811 1859 1881 1910 1860 1741 1602 1345 1278 1222 1156 1079 956 813 749 792 882 1071 1168 1146 1296 1364 1497 1606 988 899 740 912 914 879 765 874 804 765 659 755 897 861 556 531 411 302 270 289 273 176 221 224 180
1648 1686 1617 1764 1676 1559 1875 2014 2033 1912 1994 1920 2008 1939 2303 2316 2333 2320 2254 2233 2264 2295 2279 2230 2260 2210 2135 2102 2120 2044 1939 1773 1726 1688 1639 1720 1776 1751 1802 1768 1736 1698 1606 1446 1242 1131 1123 938 778 648 670 811 882 939 1192 1188 1378 1420 1571 1589 1014 803 807 884 1014 1004 831 902 772 668 707 753 948 812 647 556 479 375 280 288 267 262 241 226 199
1589 1580 1626 1655 1884 1703 2062 2227 2254 2088 2407 2318 2232 2259 2409 2353 2265 2286 2239 2259 2375 2420 2389 2320 2276 2238 2157 2250 2129 1979 1859 1795 1762 1788 1755 1679 1656 1668 1602 1500 1446 1573 1563 1420 1286 1187 1030 767 730 848 825 788 831 910 1087 1152 1307 1396 1383 1421 1236 923 876 890 1221 1021 819 873 785 748 681 992 995 1000 641 539 483 396 307 334 261 220 157 209 204
1420 1569 1534 1769 1772 1784 2167 2527 2459 2049 2174 2429 2794 2286 2204 2369 2246 2300 2263 2290 2370 2454 2417 2345 2289 2351 2289 2116 1972 1885 1834 1856 1821 1805 1752 1656 1618 1615 1606 1560 1614 1542 1586 1454 1332 1214 1096 966 752 912 1021 940 896 814 1002 1196 1397 1235 1135 1158 1547 1074 938 944 1113 928 812 931 877 781 782 769 1132 882 692 588 456 429 326 251 187 286 236 167 233
1239 1372 1506 1714 1697 1824 2140 2054 2016 1857 1972 2167 2166 2021 2148 2402 2416 2378 2318 2330 2278 2387 2392 2418 2334 2315 2287 2156 1930 1893 1759 1949 1808 1814 1730 1720 1750 1590 1607 1668 1721 1691 1516 1408 1337 1277 1190 1188 929 950 1100 984 726 681 836 995 969 916 1006 1142 1601 1244 1246 1262 1059 838 835 896 936 851 812 978 1136 767 703 585 504 434 342 245 281 232 200 249 188
1124 1217 1576 1687 1803 1892 1891 1987 2108 2139 2087 2136 2163 2074 1847 2462 2483 2358 2402 2367 2444 2433 2492 2492 2396 2287 2221 2162 2046 2295 2450 2226 1870 1739 1828 1690 1785 1676 1657 1754 1792 1711 1572 1416 1469 1332 1266 1274 1229 1069 1188 1035 748 646 631 633 582 594 752 1178 1556 1710 1630 1352 1173 937 809 872 840 830 800 1105 1038 756 701 586 479 438 358 264 229 283 214 108 176
747 1051 1439 1729 1743 1780 1862 2067 2130 2052 2028 2048 2135 2203 2224 2322 2281 2350 2394 2556 2469 2424 2327 2148 2160 2302 2149 2358 2500 2503 2466 2300 1969 1772 1559 1648 1744 1697 1800 1817 1874 1791 1610 1465 1457 1445 1485 1471 1396 1356 1085 744 624 545 596 425 438 514 648 618 1503 1696 1601 1429 1221 883 842 939 839 883 918 975 861 662 660 629 455 407 317 270 255 256 211 186 332
788 862 1508 1688 1689 1661 1559 1788 1759 1951 2074 2024 2172 2267 2162 2164 1696 2674 2297 2218 2230 2249 2025 1928 2281 2513 2574 2452 2492 2468 2397 2311 2044 1692 1678 1815 1840 1782 1762 1843 1798 1752 1691 1606 1571 1501 1440 1398 1513 1357 922 654 918 624 457 343 326 319 456 1134 1455 1474 1531 1528 1330 1028 809 888 846 815 1090 976 882 774 620 590 530 425 328 260 265 258 275 341 395
833 747 1275 1384 1517 1691 1627 1798 1795 2046 2129 2122 2306 2234 2162 2552 2349 2418 2438 2302 2295 2133 2080 2123 2112 2247 2440 2460 2478 2603 2506 2540 1554 1725 1703 1773 1800 1830 1782 1777 1672 1644 1586 1506 1614 1534 1152 1218 1258 1284 1109 939 802 644 346 349 340 322 713 1271 1413 1434 1453 1541 1290 1072 957 808 762 796 1082 1002 962 732 635 597 558 480 398 288 245 311 311 301 360
865 849 1344 1349 1548 1621 1759 1797 1861 2085 2087 2269 2226 1862 1802 2279 1973 2140 2410 2186 1835 2025 2154 2099 2060 2032 2165 2087 1929 2216 2178 2036 2001 1732 1758 1919 2001 1855 1709 1452 1380 1420 1735 1332 1059 1239 1420 1642 1414 1087 1033 852 832 892 715 524 474 402 538 1025 1379 1415 1426 1483 1421 1186 1157 995 1034 872 1156 1083 1066 820 636 605 482 478 417 302 246 319 284 357 427
841 943 1190 1523 1459 1473 1612 1695 1766 1914 2036 2105 1854 1932 1884 1746 1860 2449 2176 2092 2028 1940 2018 1857 2052 2050 1832 1802 1893 2087 1945 2004 2324 2206 1863 1928 1858 1739 1529 1537 1520 1422 1523 1115 1111 1123 1040 815 857 905 934 854 783 764 892 776 586 566 485 689 1348 1482 1450 1427 1409 1457 1368 1202 1119 993 1364 1108 1247 790 638 632 546 450 450 324 161 225 226 505 466
810 982 1174 1346 1490 1497 1502 1575 1519 1709 1890 2153 1831 1463 1780 1873 2219 2296 1747 1795 2020 1709 1910 1989 1823 1980 2053 1841 1739 1786 1972 2272 2248 2092 2022 2030 2043 1880 1668 1622 1446 1300 1360 1224 1075 1030 934 960 1050 949 968 961 745 794 785 719 734 458 519 496 973 1364 1487 1365 1416 1513 1444 1276 1119 1084 1482 1262 1336 801 797 622 537 502 400 240 234 235 139 364 460
906 853 1124 1387 1581 1400 1335 1368 1636 1893 1874 2015 2122 1567 1820 1733 1676 1330 1272 1402 1603 1640 1565 1526 1702 1264 1938 1943 2013 2020 2033 2095 2255 2053 1846 2134 2089 2164 1552 1540 1442 1299 1273 1008 948 832 987 1089 1154 1107 929 830 712 767 734 709 805 722 543 563 575 1160 1488 1378 1384 1501 1476 1303 1141 1294 1581 1452 1126 1200 693 615 557 517 280 349 237 260 106 101 126
838 929 1166 1218 1445 1427 1361 1443 1483 1586 1489 1500 1455 1531 1759 1736 1453 1416 1515 1596 1554 1410 1636 1804 1823 1852 1664 1849 1855 2132 2177 2154 2112 2226 2062 2088 1810 1642 1713 1517 1403 1238 1070 987 963 827 990 1053 1065 924 918 804 784 860 818 787 854 735 585 476 561 726 1346 1514 1497 1469 1342 1311 1159 1414 1561 1480 1150 1088 813 506 509 547 455 206 314 354 213 87 83
788 965 1100 1279 1315 1481 1135 1141 1212 1077 1114 1134 1466 1342 1583 1538 1598 1693 1598 1582 1478 1479 1639 1668 1488 1400 1609 1931 2152 2280 2018 2085 1966 1993 2072 2064 1934 1797 1752 1573 1421 1267 1162 1082 1176 1270 1254 1177 1066 931 653 757 700 943 957 783 556 631 548 417 607 654 1128 1500 1563 1395 1379 1440 1489 1516 1678 1468 1139 1020 1096 777 727 474 398 340 268 208 202 180 121
933 915 1002 1206 1270 1467 910 1198 1173 1236 1345 1102 1177 1330 1571 1513 1771 1284 1337 1689 1622 1451 1586 1767 1478 1378 1424 1184 1618 1703 1725 1893 1752 1724 2150 2172 1892 1797 1634 1531 1432 1261 1332 1378 1508 1467 1464 1437 1314 1090 895 772 875 1032 827 744 607 525 581 375 488 866 1046 1327 1495 1474 1370 1466 1477 1660 1909 1638 1350 1235 1184 869 798 674 592 416 269 319 242 239 220
905 952 956 1158 1386 971 822 1012 1050 1377 1348 1032 1064 1018 978 1252 1832 1808 1745 2034 1849 1453 1427 1422 1462 1123 1202 1239 1341 1458 1500 1401 1213 1390 1674 1735 1788 1776 1475 1506 1491 1504 1537 1407 1519 1432 1445 1160 1270 1334 1436 1328 1227 1191 1071 840 783 566 604 475 525 888 1095 1185 1374 1599 1551 1697 1527 1490 1698 1852 1444 1466 1453 1096 872 1228 788 492 415 373 267 232 247
981 1109 1125 737 915 1142 1071 1257 1401 1432 1230 1038 963 1074 1247 1527 1906 1750 1754 1826 1592 1212 1225 928 1213 945 874 772 1244 1298 1522 1319 999 1112 1240 1334 1295 1233 1245 1482 1463 1589 1612 1766 1648 1660 1485 1510 1529 1362 1397 1564 1592 1325 1004 1135 1034 994 932 682 973 896 944 1014 1402 1654 1742 1666 1573 1460 1540 1612 1823 1576 1189 1399 948 904 964 876 675 501 363 266 234
892 1084 1129 784 1043 1187 970 1402 1633 1491 1330 1189 1129 1407 1559 1762 1852 1836 1780 1699 1456 1271 1306 1122 898 947 1105 1030 1017 1325 1313 1431 1316 1071 994 1184 1179 1248 1440 1296 1297 1266 1504 1507 1647 1694 1537 1468 1336 1211 1246 1263 1366 1367 1267 1180 1078 1097 1153 962 1124 1544 1308 1137 1510 1727 1834 1717 1648 1576 1502 1567 1595 1704 1638 1518 1243 811 686 1236 900 613 591 384 269
1106 1180 1256 832 1384 1070 1109 1379 1468 1536 1445 1418 1477 1556 1738 1848 1851 1873 1958 1540 1455 1388 1246 1262 1314 1316 1081 1260 1203 1234 1238 1328 1256 1228 1168 1062 1188 1356 1250 1310 1154 1178 1400 1593 1649 1719 1601 1449 1316 1115 1329 1428 1329 1248 1195 1348 1273 1218 1546 1644 1213 1165 1475 1534 1590 1676 1582 1848 1882 1555 1640 1656 1677 1531 1529 1720 1501 965 862 971 1343 1429 692 643 485
1340 1418 1582 1498 1424 1148 1259 1398 1532 1308 1231 1334 1581 1669 1852 1913 1889 1846 1741 1642 1579 1512 1550 1430 1312 1169 1107 1047 1087 1179 1255 1229 1091 1244 1277 1225 1083 1170 1077 990 1058 1164 1342 1489 1284 1566 1679 1721 1464 1410 1333 1199 1214 1435 1389 1413 1438 1515 1686 1789 1743 1542 1680 1549 1554 1458 1552 1602 1394 1815 1672 1697 1706 1592 1572 1615 1724 1537 764 940 900 968 1245 819 691
1683 1897 1911 1888 1814 1664 1471 1576 1702 1549 1377 1038 1680 1875 1916 2001 1991 2053 1864 1909 1815 1733 1537 1449 1311 1212 1177 1034 1188 1264 1172 1214 1128 1121 1109 1056 863 780 826 1016 1055 1113 1300 1431 1477 1606 1696 1909 1749 1509 1476 1666 1508 1975 1884 1612 1577 1782 1776 1856 1676 1702 1580 1614 1651 1653 1285 1567 1606 1422 1543 1630 1680 1530 1836 1656 1640 1758 1161 872 1162 880 949 1176 1174
1870 2011 2137 2070 2049 2141 1799 1743 1921 1430 1303 1458 1898 2190 2353 2237 2268 2145 2154 1921 1732 1693 1587 1513 1156 1098 1094 1072 1125 1184 1164 1144 1029 1085 920 760 986 990 830 938 904 939 1090 1276 1633 1477 1664 1794 1759 1584 1518 1468 1699 1683 1469 1594 1545 1455 1524 1491 1336 1215 1319 1552 1613 1457 1606 1546 1618 1619 1565 1730 1566 1448 1035 1074 1296 1590 1744 1354 793 901 999 984 890
1697 1781 1696 1836 2006 2385 2133 2004 2087 2012 2071 2017 2268 2367 2285 2235 2150 2090 1926 1795 1676 1437 1312 1285 1169 997 986 921 866 892 982 1089 1065 906 971 983 882 852 861 747 844 910 1131 1226 1431 1367 1564 1912 1712 1236 1246 1596 1835 1734 1621 1448 1392 1220 1002 931 1185 1162 1094 1118 1350 1452 1438 1519 1446 1278 928 1294 1177 961 950 907 840 965 1603 1657 1717 1760 1734 768 1152
1462 1493 1638 1786 1984 2409 2506 2198 2376 2481 2479 2485 2419 2277 2036 1962 1691 1638 1547 1546 1193 1092 958 936 854 922 970 916 943 1062 1042 1030 944 861 907 801 862 858 799 722 820 926 1269 1427 1248 1382 1567 1570 1532 1211 1058 914 936 1208 1311 1062 855 724 628 1073 970 904 919 938 1322 1230 1330 1244 1258 1082 1165 1425 1582 982 707 645 584 773 875 1679 1278 1551 1613 1340 891
1773 1721 1798 1934 2253 2365 2569 2438 2628 2709 2764 2623 2296 2026 1697 1429 1391 1437 1450 1303 1206 995 799 702 772 908 1036 1061 1145 1083 1087 976 932 799 898 873 808 831 751 710 781 998 1179 1377 1200 1158 1290 1382 1009 1175 1098 1043 791 936 855 1031 809 680 765 966 828 802 740 706 947 1236 1252 1216 1194 1098 1064 1184 1136 931 965 984 1056 1241 1371 1433 1503 1466 1324 1509 1329
1794 1658 1835 2014 2394 2415 2647 2664 2760 2708 2707 2596 2309 1996 1537 1488 1475 1462 1346 1191 1295 1234 1135 951 832 740 774 914 906 999 1032 981 933 688 690 1023 986 1002 789 796 856 886 898 842 860 982 1062 1031 1038 926 1114 1336 842 698 676 625 497 567 830 709 767 963 811 838 754 771 974 1116 1337 1248 1236 1094 1041 1182 935 920 1340 1368 1324 1394 1331 1130 956 1064 1114
1800 1533 1540 1884 2124 2365 2475 2621 2709 2683 2645 2557 2198 1743 1514 1198 1267 1266 1180 679 614 678 781 656 694 792 833 811 799 857 888 973 1010 814 789 915 917 952 774 542 521 565 668 720 741 888 944 970 1313 1460 819 811 711 698 719 1120 609 600 751 531 572 828 773 750 890 817 689 726 870 1030 1055 1047 1134 1163 1313 1355 1338 1364 1162 1182 1125 768 488 283 392
1856 1522 1408 1650 1883 2056 2208 2423 2614 2599 2503 2479 2160 1717 1455 1258 1076 786 637 616 524 494 542 572 551 488 359 377 440 601 972 1070 1033 971 1030 904 866 784 419 372 457 489 528 664 660 704 790 1008 1127 1293 1389 1148 859 694 584 598 496 335 431 580 424 576 615 528 860 703 768 726 823 859 798 934 972 956 1126 830 941 900 681 603 589 273 26 16 44
1909 1650 1360 1559 1672 1870 1857 2095 2330 2439 2480 2421 2043 1482 1320 1020 698 623 509 408 384 387 294 176 228 113 28 78 15 41 278 722 1165 1150 989 878 631 476 400 354 427 472 515 537 616 619 656 734 902 1024 1168 1438 1009 882 570 482 440 721 626 118 188 305 646 705 604 632 769 725 776 824 842 856 1010 1052 1035 802 761 802 634 686 556 275 194 162 12
2004 1863 1385 1460 1535 1665 1497 1761 2032 2250 2353 2281 1781 1190 1125 621 610 671 700 649 477 416 420 262 168 209 53 0 0 7 144 512 955 1221 1176 773 481 363 352 445 431 422 576 647 644 526 566 768 730 952 792 936 1150 826 799 379 358 412 903 990 989 1058 694 718 878 443 539 528 563 488 476 438 362 249 407 532 500 612 439 142 10 0 24 176 82
2041 1928 1417 1249 1295 1350 1200 1481 1802 2086 2216 1996 1242 1038 924 974 1245 1232 1033 872 603 340 172 83 162 5 0 0 1 22 54 488 643 980 1014 680 462 355 457 503 450 360 330 399 473 604 652 803 786 804 840 637 763 711 960 561 282 326 334 202 232 308 1504 656 741 824 644 84 0 256 144 124 0 7 35 77 19 136 0 0 0 0 0 0 0
1984 1828 1513 1152 1097 1070 1003 1277 1626 1931 2069 1772 1266 989 928 1000 1027 1026 1039 901 674 314 199 66 0 0 0 0 0 7 9 376 456 532 683 895 684 432 466 715 732 485 414 466 396 504 542 658 606 864 781 880 910 861 666 637 933 253 254 266 283 661 952 882 1041 999 624 79 0 0 0 0 0 0 0 0 0 0 0 0 0 0 0 0 0
1772 1707 1465 1057 1080 899 840 1144 1460 1768 1854 1607 1240 941 886 910 992 906 718 491 433 200 56 0 0 0 0 0 0 0 3 1 103 133 243 692 857 916 846 934 908 705 418 474 449 378 544 542 697 856 913 725 566 572 551 456 969 838 683 726 890 942 826 846 754 696 692 59 0 0 0 0 0 0 0 0 0 0 0 0 0 0 0 0 0
1422 1314 1076 966 892 863 905 1098 1379 1588 1637 1384 1119 818 690 734 834 894 676 376 260 121 26 0 0 0 0 0 0 0 0 8 8 14 135 308 564 599 565 577 608 343 209 302 240 306 283 514 569 666 624 495 338 512 566 448 677 768 862 970 922 715 742 688 521 318 297 89 7 0 4 4 2 0 0 0 0 0 0 0 0 0 0 0 0
1448 1259 1030 960 915 986 1031 1197 1385 1540 1432 1220 948 725 578 696 698 930 843 515 350 173 26 0 0 0 0 0 1 0 0 0 10 2 5 36 166 425 279 162 210 136 128 242 433 254 314 314 182 301 448 489 247 161 362 348 337 546 769 874 808 695 807 834 539 288 86 6 2 1 0 0 0 0 0 0 0 0 0 0 0 0 0 0 0
Wind_Speed
28 31 31 34 31 32 33 35 39 42 43 42 38 38 40 38 37 36 36 38 39 37 37 36 35 34 34 32 31 31 31 32 32 32 32 32 31 31 29 28 27 27 27 27 27 27 23 21 19 19 17 15 15 15 15 16 17 18 18 18 19 21 21 21 21 21 19 19 19 20 20 19 18 17 16 16 14 15 14 12 nan nan 13 14 14
31 31 31 34 33 34 34 36 39 40 40 41 41 42 43 40 39 40 40 40 40 39 39 38 36 35 33 32 31 31 31 32 33 33 33 33 32 31 29 27 26 26 25 25 25 25 23 21 20 19 17 16 15 16 16 17 17 17 17 18 19 20 21 21 20 20 19 19 20 19 19 19 18 18 17 16 15 14 13 11 14 nan 12 nan nan
32 33 32 36 35 36 35 36 38 42 43 43 44 46 46 43 41 41 42 42 41 39 38 37 35 34 32 31 30 31 32 33 34 34 34 33 32 32 31 29 27 25 24 24 24 23 22 20 19 19 18 17 15 15 16 17 18 17 17 18 19 20 20 20 18 19 19 19 19 19 20 17 17 17 17 15 14 nan nan nan nan nan nan nan nan
34 32 33 36 38 37 37 38 39 44 45 46 45 46 46 43 42 41 42 41 39 38 37 35 34 32 30 30 30 31 32 32 33 34 34 34 33 33 31 29 28 27 26 25 24 23 22 20 19 18 18 17 15 15 16 17 18 18 18 18 19 19 19 18 17 18 18 16 15 16 14 14 14 15 16 16 15 15 nan nan nan 17 nan 16 nan
36 35 35 35 36 38 39 40 41 44 47 48 48 48 47 44 42 41 41 40 39 39 38 36 35 33 31 30 30 31 32 32 32 33 33 33 33 33 31 30 29 28 27 26 25 23 22 21 19 19 18 17 15 16 17 18 19 19 18 18 18 19 19 19 17 17 16 15 12 14 14 14 13 15 15 15 15 16 16 16 16 16 17 18 nan
36 36 36 36 37 38 40 41 43 44 46 48 48 47 46 46 44 42 41 41 40 39 38 37 35 33 32 31 31 31 32 32 32 32 31 31 31 33 32 31 30 29 28 26 25 24 22 21 20 19 18 18 16 16 17 18 19 19 18 17 18 19 19 18 17 16 15 13 11 14 13 13 12 12 14 15 15 14 15 16 16 16 17 18 nan
37 35 36 36 36 38 41 42 45 45 46 47 47 47 45 44 43 41 41 41 41 39 37 35 34 33 32 32 32 32 32 32 32 32 31 30 29 31 34 32 31 29 27 26 26 25 23 23 21 19 18 18 16 17 18 19 20 19 18 18 18 18 19 18 17 15 12 12 13 13 12 12 12 11 14 13 14 14 16 16 16 16 16 17 nan
36 34 35 36 36 39 42 44 46 46 47 46 47 48 46 44 42 40 40 41 40 38 37 36 35 34 32 31 32 33 32 32 32 32 31 30 28 27 31 31 29 29 29 27 26 26 25 23 21 19 18 18 17 17 18 19 20 19 20 19 18 19 19 19 17 15 9 13 13 13 12 12 12 10 12 13 13 14 15 15 15 16 16 nan nan
38 37 36 37 39 43 43 44 45 48 47 47 48 49 48 45 43 40 40 42 40 38 38 36 35 34 32 31 31 33 32 32 31 31 30 30 30 26 27 29 29 28 28 27 26 25 24 23 22 20 19 19 18 16 16 18 18 17 16 17 18 19 20 19 17 14 13 14 14 13 13 13 12 12 12 12 13 14 14 14 nan nan nan nan nan
39 38 37 37 40 44 45 45 46 47 46 45 47 49 48 47 44 41 40 42 40 37 38 37 35 34 32 30 31 32 32 31 30 29 28 27 25 29 31 31 30 30 29 29 27 25 23 22 21 19 19 19 18 16 16 16 16 16 15 16 16 17 17 18 17 12 14 13 14 14 12 12 12 11 14 14 13 13 nan nan 14 14 15 17 18
40 39 38 40 46 46 47 46 47 47 46 45 45 46 45 43 44 42 39 39 38 37 38 36 34 33 31 30 31 31 31 31 28 28 27 25 28 30 32 31 31 29 30 30 28 27 24 22 22 21 21 20 19 17 16 17 16 15 14 14 14 15 16 18 14 16 14 14 15 14 15 12 11 11 13 14 14 13 13 14 14 15 15 16 17
40 40 39 40 48 48 50 50 48 45 45 43 42 42 40 39 41 42 39 37 37 39 39 35 32 32 32 31 31 31 31 30 28 27 27 27 29 30 31 30 29 29 29 29 28 27 25 24 22 20 20 20 19 17 18 18 16 15 13 14 14 14 15 17 15 16 16 15 15 14 14 13 14 14 15 14 13 14 14 13 14 15 15 16 16
41 40 40 43 45 47 49 50 48 44 41 39 38 38 37 39 40 41 39 37 37 40 40 34 32 33 32 31 31 31 31 30 28 28 28 28 29 29 28 29 29 29 28 28 28 27 25 24 21 20 21 21 20 19 19 18 15 16 15 14 13 14 15 18 15 16 16 16 15 14 15 13 14 15 14 15 15 14 13 14 15 14 14 15 16
42 42 43 43 41 43 43 42 43 41 39 37 35 35 36 37 39 40 39 39 39 39 39 35 34 34 31 29 30 31 30 29 28 29 30 29 29 28 27 28 29 29 27 27 27 26 25 23 21 19 20 22 21 20 18 18 14 16 16 14 14 14 18 16 15 17 17 17 16 15 15 14 14 14 14 14 14 14 13 14 14 14 14 14 15
44 45 44 43 41 39 42 38 37 36 36 36 32 35 35 35 39 41 41 42 41 39 39 38 36 33 30 30 30 31 30 29 29 30 30 29 28 28 27 27 28 29 28 26 25 26 26 26 24 21 20 20 19 18 18 17 13 16 18 17 16 15 15 15 15 17 17 17 17 16 16 14 16 13 15 15 14 14 14 14 13 14 14 14 14
46 45 45 44 42 39 36 40 39 37 39 39 33 35 36 38 42 44 44 44 43 40 38 37 33 30 29 29 29 29 30 31 31 31 29 29 28 27 27 27 28 28 28 26 25 26 27 26 25 22 20 19 18 18 17 16 17 18 19 19 18 16 15 14 16 17 16 16 17 16 16 17 14 13 15 16 15 15 14 14 13 13 13 13 14
47 46 44 43 42 37 36 38 41 45 42 37 36 36 34 39 45 44 45 45 43 40 37 34 29 28 28 28 28 29 31 32 32 32 30 29 28 27 27 27 26 27 27 27 27 26 26 25 25 24 22 21 20 19 19 18 19 19 20 19 21 19 19 15 17 16 16 17 16 17 16 17 15 14 16 17 17 16 15 15 14 13 13 13 13
48 47 45 42 39 37 36 36 38 35 34 34 34 32 29 34 41 45 47 44 40 36 32 30 27 26 28 28 29 31 32 33 33 32 30 29 28 27 26 26 26 27 27 27 27 27 25 25 25 25 25 24 23 22 22 21 20 21 21 20 21 22 20 17 18 17 18 17 17 17 16 19 16 15 17 17 17 17 16 15 14 13 12 12 13
46 46 45 40 36 35 33 31 29 27 27 23 22 23 22 23 29 36 40 36 31 30 27 26 26 27 28 29 31 32 33 34 34 33 30 29 28 26 25 26 27 27 27 26 27 27 26 24 24 26 27 27 27 26 25 24 23 23 23 21 20 22 23 18 18 18 19 17 17 17 18 18 13 16 18 17 17 17 16 15 16 15 14 13 13
44 43 40 36 33 31 29 28 26 24 22 21 19 19 20 21 21 24 27 26 25 27 26 26 28 28 29 30 30 30 31 32 34 33 31 29 25 23 24 24 25 26 27 26 26 27 26 25 24 24 27 28 28 28 27 26 25 26 25 23 20 22 20 19 20 19 18 19 18 18 22 15 16 18 18 18 18 18 18 16 16 15 14 14 12
41 40 35 32 31 28 27 24 24 23 21 19 18 17 20 22 22 23 23 23 24 27 28 29 28 29 29 30 29 28 29 29 29 30 30 26 24 23 22 22 23 24 25 26 26 26 26 26 24 23 26 27 26 28 28 27 27 28 28 26 22 19 21 21 20 20 18 20 19 21 23 18 17 19 20 19 19 19 18 17 16 16 14 14 14
39 36 33 30 28 25 25 23 21 21 18 17 16 17 18 20 21 20 19 21 23 25 26 26 27 28 31 29 28 29 29 29 29 29 26 26 24 22 22 22 22 22 24 25 26 25 26 25 25 24 25 25 23 23 24 27 28 29 29 27 22 22 22 21 21 20 20 21 21 25 22 20 18 20 21 21 20 20 19 18 17 17 16 16 16
34 32 29 28 25 23 22 22 20 18 18 17 17 18 18 16 18 17 17 19 21 22 23 25 26 27 28 29 30 30 30 29 27 26 24 24 23 22 21 21 21 21 22 24 25 24 25 25 25 26 24 21 20 23 23 25 26 27 27 25 25 24 23 22 21 20 21 23 22 27 23 21 20 22 23 22 23 22 20 19 20 19 18 17 17
30 29 27 24 22 20 20 19 18 16 15 15 18 19 19 16 16 16 16 16 19 21 23 24 26 27 29 30 30 30 29 27 28 28 25 21 21 22 21 20 20 20 21 21 23 23 23 27 27 25 20 19 20 21 22 23 24 25 27 27 26 26 24 22 21 20 22 24 24 27 24 22 20 23 24 24 24 22 21 22 20 21 20 18 19
26 25 23 22 21 20 18 17 15 14 14 15 18 19 19 17 16 15 16 16 19 21 22 24 26 27 28 29 30 29 28 26 24 23 21 19 19 19 18 17 17 19 19 19 19 20 19 20 21 21 20 19 19 19 20 21 22 24 26 27 27 26 25 23 22 22 23 24 26 26 24 23 21 24 25 25 25 23 23 23 22 24 22 21 20
23 20 20 20 20 19 18 16 14 14 16 16 16 17 17 15 14 16 18 19 21 22 23 23 25 27 27 28 28 28 27 25 23 21 20 19 19 18 17 17 17 18 17 18 18 17 18 19 20 20 20 18 18 18 19 20 21 23 25 26 26 26 26 25 24 24 25 24 27 25 24 23 23 23 25 26 26 24 24 24 24 25 24 23 22
19 17 16 17 16 17 17 16 15 17 18 17 16 15 17 14 15 17 20 23 24 25 24 22 23 24 26 27 26 26 25 23 21 20 19 18 18 17 17 17 17 18 18 18 18 17 17 18 19 20 19 18 17 18 19 19 20 22 23 24 25 25 25 25 24 24 25 25 26 24 24 23 23 23 25 26 27 25 25 25 26 25 24 23 23
16 15 14 13 13 15 17 18 19 19 16 15 15 17 15 14 16 19 22 23 22 21 21 21 21 21 24 25 24 23 22 21 20 19 19 18 18 16 16 16 17 18 18 18 17 17 18 19 19 19 19 18 18 19 19 20 19 20 21 22 23 24 24 24 24 24 25 24 24 24 23 23 24 23 24 27 27 27 25 27 26 27 25 22 23
16 14 12 11 12 15 19 22 21 17 15 14 15 12 11 13 17 17 19 18 17 18 18 20 20 22 23 22 20 20 20 20 18 18 18 18 18 17 16 16 17 17 17 18 17 18 18 18 18 18 18 18 18 19 19 19 18 19 21 22 22 23 23 23 24 24 24 24 23 26 23 25 23 23 25 26 28 28 26 27 28 28 27 nan nan
16 15 12 11 12 17 22 22 14 11 14 11 14 12 10 9 13 14 14 13 14 15 15 16 19 23 22 17 17 19 19 18 18 17 17 17 16 16 16 17 17 17 16 17 17 17 17 16 16 16 17 16 16 18 17 18 18 19 20 21 21 22 23 24 24 24 24 25 26 28 27 27 26 26 27 27 27 29 30 30 28 27 28 26 24
16 14 12 12 15 17 21 12 11 14 15 13 14 10 6 5 10 13 12 12 13 15 15 16 23 22 16 15 18 19 17 16 17 17 16 16 15 15 16 17 16 15 16 17 17 16 15 15 14 15 16 15 16 16 15 17 17 17 18 18 20 20 22 24 24 25 25 26 26 27 29 29 28 28 29 28 28 30 32 31 30 28 28 28 25
13 11 12 17 17 18 14 11 14 13 13 12 8 5 4 4 7 10 12 13 17 18 17 18 24 17 10 16 19 17 14 15 17 17 15 14 14 15 17 16 16 14 14 16 16 16 15 15 15 15 15 14 14 14 14 15 16 16 16 17 18 19 20 22 23 24 25 26 26 27 27 28 27 26 27 28 28 30 30 32 32 30 30 28 27
10 10 16 21 14 11 14 17 15 11 11 10 9 7 7 4 5 8 12 14 18 18 16 20 21 14 14 20 19 10 10 12 14 16 14 13 14 16 16 16 15 14 14 14 16 16 16 16 15 14 14 13 13 13 12 13 15 16 16 17 17 19 20 21 22 23 24 25 25 26 26 25 25 26 24 25 26 28 32 32 34 33 32 30 29
10 10 15 14 11 15 18 13 10 12 11 10 9 8 7 5 5 8 12 16 20 16 14 19 19 13 14 22 15 11 8 8 10 12 13 13 13 14 16 16 15 14 14 15 16 16 17 17 16 15 15 14 13 13 12 13 14 16 17 18 18 20 19 20 21 22 22 23 24 24 24 24 25 25 25 26 26 28 31 31 31 33 34 33 32
12 10 12 12 12 17 15 12 12 12 13 11 8 6 6 5 7 10 13 19 19 14 14 17 17 13 14 19 14 11 11 8 9 10 11 12 12 13 14 15 15 14 13 15 16 17 17 18 17 16 16 16 16 16 16 16 17 17 18 18 19 19 19 19 20 19 20 21 22 23 23 24 25 25 26 26 29 29 30 31 32 32 33 33 33
12 12 11 15 14 16 18 16 13 13 14 13 9 8 7 8 10 13 15 18 17 14 12 15 15 13 13 16 13 11 10 10 11 12 12 12 11 12 14 14 15 14 14 15 16 17 18 19 19 18 17 17 16 18 18 19 19 20 20 19 20 20 20 20 20 19 19 19 19 21 22 23 24 25 26 25 26 29 30 30 30 31 30 30 31
11 11 12 14 16 17 20 18 15 13 12 16 13 10 11 12 13 14 16 18 17 13 12 14 15 13 12 15 13 11 10 10 11 13 12 13 12 12 13 14 14 14 15 15 16 17 17 19 20 19 17 17 17 20 20 21 21 22 23 23 23 23 23 22 21 20 21 19 19 19 20 21 24 25 24 24 25 25 29 27 28 28 29 28 28
9 9 10 13 15 12 16 18 15 15 16 20 18 12 12 14 14 13 14 15 16 15 15 14 14 14 12 12 12 12 11 11 13 12 12 13 13 14 13 13 14 15 15 15 16 17 17 18 20 21 18 18 18 19 21 22 23 24 26 27 27 26 25 23 23 22 21 21 21 21 21 23 24 26 26 24 23 24 24 27 25 25 27 28 27
5 4 5 9 9 7 9 17 17 16 21 21 18 15 15 14 13 13 13 14 15 15 14 14 14 15 13 12 12 12 12 14 16 13 11 12 13 14 14 14 15 15 15 15 17 18 19 19 19 21 20 19 20 20 22 23 25 26 28 28 27 27 25 24 24 24 24 24 25 25 25 25 25 25 24 21 22 21 21 22 23 23 26 28 26
8 5 5 7 8 5 6 13 16 19 20 19 17 16 14 12 12 12 12 13 14 14 14 14 14 13 13 12 12 12 13 14 15 14 12 13 13 14 14 15 15 15 15 16 17 17 18 20 21 21 22 23 23 23 24 25 26 26 25 25 28 29 26 23 24 25 24 25 25 26 26 24 23 19 21 20 19 17 15 20 22 24 24 29 28
9 7 5 7 10 7 6 11 14 18 19 18 17 16 14 13 12 11 11 12 14 15 15 15 14 13 11 10 10 12 14 14 15 14 13 13 14 14 14 15 16 16 16 17 19 19 19 20 21 20 21 24 25 24 25 25 25 22 21 23 25 24 22 20 21 23 23 23 24 25 26 24 24 23 21 22 20 18 19 22 22 23 24 24 26
7 7 6 7 8 8 7 10 13 16 17 17 17 16 14 13 12 11 11 13 15 15 16 16 15 14 11 9 8 9 12 13 14 14 13 14 15 15 15 16 16 17 19 19 20 21 20 20 20 21 20 22 23 23 23 23 21 18 20 21 22 21 21 19 18 21 22 23 23 24 25 24 25 26 25 23 23 24 24 24 24 25 24 23 25
7 5 5 7 8 8 9 12 14 16 16 17 18 17 16 15 14 13 12 15 15 16 18 18 16 14 12 10 8 7 9 11 13 14 14 15 15 15 16 17 17 17 17 18 19 20 20 20 18 20 22 24 26 25 24 18 21 21 23 21 18 16 18 19 20 22 22 23 22 24 24 26 27 28 28 29 28 27 27 27 28 29 28 26 26
8 7 9 9 10 10 12 14 15 15 17 17 17 20 21 20 18 17 15 15 18 19 20 19 17 14 12 11 10 8 7 9 12 14 15 15 16 17 17 17 17 17 18 19 19 19 19 19 19 20 21 24 23 25 25 21 23 27 24 20 20 17 16 18 20 23 22 24 24 24 25 26 27 28 28 29 29 29 29 28 30 30 nan nan nan
8 8 10 11 12 13 13 14 15 15 16 18 20 22 24 24 21 20 19 21 21 21 21 19 16 14 nan nan nan nan 9 9 11 12 14 16 17 17 18 18 18 19 19 20 19 19 19 19 20 21 22 23 25 25 27 25 24 20 25 26 24 20 18 21 22 24 22 24 25 24 25 25 27 27 27 29 29 29 29 30 30 29 29 28 nan
8 9 11 13 14 13 14 14 15 16 17 19 21 22 23 24 22 21 20 21 23 22 22 19 15 13 nan nan nan nan 14 14 13 13 14 16 17 18 18 19 19 19 19 20 21 20 19 19 20 21 24 25 25 25 26 27 25 22 22 25 23 19 19 21 20 23 24 25 24 26 27 27 26 27 28 29 30 31 30 31 nan nan nan 29 nan
9 12 13 13 13 13 13 14 15 15 17 19 21 21 23 21 21 22 22 23 24 22 21 nan 15 nan nan nan nan nan nan 19 17 14 15 16 17 18 18 19 20 20 20 20 21 21 21 21 22 21 22 24 23 23 25 28 30 27 26 27 24 14 19 25 22 28 27 nan nan 26 28 30 nan nan nan nan nan 34 nan nan nan nan nan nan nan
12 12 13 13 13 13 13 13 14 16 17 20 20 20 21 19 20 22 22 22 22 21 20 nan nan nan nan nan nan nan nan 20 18 17 15 16 17 18 19 19 20 21 21 22 22 22 23 23 22 22 24 24 23 23 24 27 27 28 28 29 26 23 26 25 25 24 28 nan nan nan nan nan nan nan nan nan nan nan nan nan nan nan nan nan nan
11 12 13 13 14 14 15 15 17 19 21 21 22 20 20 20 21 22 23 20 20 19 nan nan nan nan nan nan nan nan nan nan 18 17 16 16 17 18 19 20 21 22 22 24 25 25 24 24 24 23 24 25 24 24 24 24 24 28 28 28 28 29 28 27 27 26 29 nan nan nan nan nan nan nan nan nan nan nan nan nan nan nan nan nan nan
12 13 15 16 17 18 19 20 22 23 23 23 22 23 22 22 22 23 25 22 19 19 nan nan nan nan nan nan nan nan nan nan nan nan 19 20 20 20 20 22 23 23 23 25 26 27 26 26 26 26 26 26 26 25 25 25 24 26 25 27 27 28 28 28 27 28 28 nan nan nan nan nan nan nan nan nan nan nan nan nan nan nan nan nan nan
14 15 17 19 21 22 23 25 24 24 24 24 24 24 22 20 21 23 26 27 24 23 nan nan nan nan nan nan nan nan nan nan nan nan nan nan 22 21 21 22 23 24 24 25 26 27 27 28 28 28 28 28 28 29 29 28 27 27 27 26 26 25 25 26 27 26 nan nan nan nan nan nan nan nan nan nan nan nan nan nan nan nan nan nan nan
Wind_Direction
299 297 295 295 296 297 300 301 300 300 301 303 302 303 307 305 302 303 303 303 303 302 304 304 304 303 300 299 300 301 300 300 301 302 303 304 304 305 307 308 307 305 306 307 305 305 306 305 303 300 299 295 294 295 294 294 295 293 291 292 295 297 295 292 287 285 281 279 278 279 276 278 277 278 275 267 258 249 247 246 nan nan 245 241 232
295 291 289 292 294 297 299 299 298 298 299 301 302 304 307 307 305 306 306 305 305 304 305 304 301 300 298 299 300 300 301 302 302 303 304 304 304 304 304 304 303 304 304 301 301 303 304 304 303 299 298 298 297 294 291 287 281 285 289 290 291 289 289 289 286 284 283 283 279 274 277 274 276 278 276 270 260 251 248 240 237 nan 243 nan nan
285 288 287 292 295 295 296 296 296 297 299 300 300 302 304 305 304 305 307 307 305 302 301 299 298 297 295 296 298 300 302 303 304 306 306 305 304 302 302 302 302 299 298 299 298 298 300 300 299 296 295 295 292 290 289 289 287 285 287 290 292 294 293 290 292 289 285 279 277 278 278 280 278 278 277 272 265 nan nan nan nan nan nan nan nan
287 285 287 289 292 291 292 294 294 297 300 301 301 301 302 302 304 305 306 305 300 298 297 296 294 293 293 294 296 299 300 303 305 306 307 307 305 302 301 301 301 300 298 295 292 293 295 296 295 293 291 290 288 288 289 286 287 286 289 289 292 291 289 289 284 282 277 268 273 285 280 281 278 274 275 275 270 257 nan nan nan 243 nan 248 nan
284 284 284 287 288 289 291 293 295 297 299 301 302 303 304 302 301 302 304 303 301 298 297 296 295 295 295 296 296 297 299 302 304 306 307 306 305 303 301 299 297 297 296 295 294 292 292 291 293 290 290 289 286 286 287 284 284 287 290 291 291 291 292 290 286 278 269 269 270 280 276 277 279 278 277 275 269 262 256 248 243 242 244 248 nan
281 283 285 286 288 291 292 294 296 298 299 301 303 305 305 302 300 300 302 302 299 296 295 295 294 294 296 296 296 297 299 301 304 305 305 305 305 303 300 298 297 297 297 297 295 292 292 291 290 290 289 289 286 286 286 284 286 288 287 287 288 289 291 288 285 278 273 270 277 271 277 276 275 281 277 275 274 268 261 252 246 244 247 251 nan
281 282 286 286 287 291 292 294 297 297 299 302 304 305 303 300 298 298 300 299 295 292 290 290 290 291 293 294 296 296 298 301 303 304 302 302 303 302 301 300 299 298 296 295 293 292 289 286 286 286 287 288 287 285 285 286 286 286 286 287 286 286 286 285 284 281 279 295 273 272 272 275 280 280 281 280 274 267 258 254 248 245 245 244 nan
278 280 283 284 287 291 292 294 297 298 300 302 305 305 302 299 297 297 299 296 290 288 287 287 289 291 293 294 295 296 298 301 303 304 303 305 301 300 300 299 296 295 296 294 292 291 289 287 285 285 289 287 286 283 283 286 287 289 285 276 278 282 284 288 287 285 287 287 280 272 271 276 276 277 285 278 273 266 259 256 253 250 248 nan nan
280 282 284 285 288 292 292 293 295 298 300 302 304 305 302 298 295 296 298 293 285 284 285 286 287 289 291 292 296 297 298 300 302 303 305 305 307 305 296 294 293 290 290 290 290 289 287 287 287 286 288 291 287 285 283 283 276 280 276 271 274 283 287 289 288 299 300 289 284 279 277 276 278 280 281 280 278 274 270 265 nan nan nan nan nan
282 284 287 286 290 290 291 292 293 296 298 300 303 305 302 297 293 292 295 290 281 281 283 283 284 287 289 292 295 294 294 296 299 302 303 305 294 291 288 290 292 291 290 289 287 286 284 285 286 284 282 280 279 280 276 270 270 268 265 270 277 281 280 291 292 292 290 293 289 285 270 266 274 276 285 282 277 274 nan nan 248 248 249 254 257
286 287 290 291 293 291 292 292 293 296 297 296 301 305 301 296 292 289 291 286 277 277 278 277 279 282 284 286 289 289 289 290 294 297 297 296 296 291 291 291 290 290 288 287 287 285 284 280 276 274 273 272 272 272 270 267 265 266 263 266 274 277 281 288 306 295 294 293 290 293 285 276 275 276 287 292 289 286 278 268 264 256 252 251 252
290 292 294 296 297 297 297 298 298 299 299 297 300 307 303 296 291 287 286 280 274 274 273 270 273 278 280 283 286 286 285 286 290 292 293 290 292 292 291 290 288 284 280 279 280 281 282 281 277 272 267 266 268 269 267 264 263 264 258 255 262 274 286 293 297 293 295 293 290 292 293 290 285 289 297 286 286 284 277 274 266 258 251 250 252
293 296 298 300 300 300 301 302 302 304 304 300 298 304 303 295 291 285 281 276 271 272 272 268 269 272 275 279 281 281 283 284 286 288 288 288 293 292 292 291 288 285 280 277 278 278 280 280 275 269 265 261 256 254 254 257 257 260 255 252 257 270 288 297 293 296 294 291 291 294 292 290 290 297 296 295 292 288 283 275 270 262 255 254 253
293 296 298 299 296 300 302 305 307 305 304 303 297 300 301 294 290 284 277 272 268 268 267 265 266 270 271 274 278 277 277 279 282 285 286 287 288 291 290 291 289 286 280 275 275 277 277 276 273 268 262 254 252 253 256 258 254 259 260 258 262 273 286 293 290 291 292 290 290 290 290 292 294 296 297 294 290 291 288 281 275 268 261 255 253
294 297 297 297 297 298 300 304 307 300 295 296 297 298 295 290 288 281 275 271 265 262 262 261 261 264 269 272 273 274 276 280 284 284 285 286 288 289 289 289 286 284 279 275 273 274 274 270 264 260 255 253 254 255 257 260 257 253 259 261 266 271 286 282 287 287 287 286 288 291 290 290 296 307 299 293 293 292 287 285 281 277 267 258 254
295 297 299 298 295 292 295 301 303 300 297 297 296 293 288 284 285 282 277 273 265 258 254 253 256 262 265 268 271 276 279 281 282 283 285 286 288 288 288 286 284 282 280 278 274 272 270 265 262 257 254 252 252 253 253 254 252 246 248 257 270 270 275 269 277 280 280 281 281 282 284 284 291 298 297 294 293 292 284 281 279 279 274 262 256
298 298 298 300 299 294 294 298 302 306 302 299 293 296 294 288 284 281 276 270 262 254 251 254 258 262 264 268 272 275 277 281 282 283 284 285 285 285 286 285 284 281 280 278 276 274 270 266 262 258 255 251 248 248 247 246 244 245 245 252 268 270 271 268 271 273 271 273 275 276 278 286 291 289 291 293 295 292 290 285 284 282 280 276 265
299 301 302 304 303 300 298 295 298 300 297 295 293 297 307 300 288 282 272 264 260 258 259 261 264 265 269 271 274 276 278 280 281 281 283 284 285 286 286 285 284 282 280 279 278 275 270 263 258 257 254 249 245 243 240 237 237 241 244 248 267 269 270 266 268 266 269 270 268 269 270 263 279 290 292 293 293 293 290 287 286 284 280 272 267
303 304 305 307 305 300 295 293 292 296 291 282 284 291 311 311 302 290 278 274 273 269 270 271 270 267 270 274 275 277 278 279 279 280 282 284 285 286 285 284 283 282 281 280 278 276 271 263 256 253 253 250 244 237 234 233 233 237 240 244 262 268 267 266 264 264 266 267 263 264 261 250 267 282 285 287 289 290 289 290 287 283 286 282 274
303 305 307 307 304 301 297 298 294 291 285 280 283 293 304 306 306 299 288 283 278 274 274 273 274 273 274 276 276 277 278 278 281 282 284 284 286 286 287 285 283 281 280 278 276 274 272 266 258 252 250 248 245 239 234 232 230 232 236 242 256 268 262 258 259 259 258 258 260 260 255 246 262 277 278 282 285 284 282 284 285 287 283 278 280
302 303 302 304 305 303 302 297 298 297 296 292 289 296 299 296 297 301 293 288 281 276 271 273 275 276 276 272 270 273 274 278 282 282 286 286 285 288 288 285 281 279 277 275 271 270 268 265 259 253 249 247 245 242 235 231 230 230 236 240 254 258 255 256 256 253 251 255 259 259 252 250 260 268 271 276 278 279 283 284 283 279 280 283 278
303 301 303 306 307 305 304 301 302 303 301 295 291 294 296 297 287 289 288 283 280 278 274 272 274 274 275 273 272 272 275 277 279 282 283 288 289 288 286 282 279 277 275 273 270 267 265 263 259 252 247 244 243 242 238 235 231 230 236 243 247 249 253 255 254 252 250 249 252 255 252 257 262 264 266 268 270 272 274 276 276 276 275 275 274
302 302 302 310 310 306 307 306 308 308 303 295 285 283 286 280 281 275 273 280 279 275 271 272 272 272 273 273 272 272 274 275 278 279 281 281 284 287 284 282 280 277 274 271 269 266 263 263 261 253 245 240 240 239 237 235 236 235 238 241 243 245 249 253 254 251 250 247 246 253 251 256 260 263 264 265 266 267 269 269 274 274 272 273 273
303 303 305 307 314 314 313 308 306 306 297 284 276 269 270 266 262 259 260 264 268 269 271 273 274 275 273 271 271 272 273 272 277 282 284 284 284 286 283 281 279 276 272 273 271 264 260 257 251 252 250 243 239 237 238 238 236 235 235 237 241 244 247 250 251 251 248 250 245 253 250 252 253 260 263 265 266 267 267 266 265 271 272 272 270
301 301 304 309 316 317 315 312 305 292 283 269 267 264 262 254 255 256 257 262 267 267 269 272 273 274 273 272 273 273 273 274 276 280 282 285 284 283 282 276 272 271 267 266 263 260 259 258 259 253 250 247 241 236 234 237 236 234 235 236 239 243 243 246 246 247 249 248 247 250 248 247 247 257 263 265 266 266 265 264 264 268 268 271 269
299 306 311 309 316 320 320 310 297 281 267 258 265 264 262 254 251 253 264 265 263 264 264 265 268 271 271 272 273 273 274 274 277 281 286 286 284 281 277 270 269 267 264 262 260 258 255 253 252 252 251 251 249 242 236 232 234 234 235 238 240 241 241 243 245 246 248 249 252 252 246 247 242 255 261 264 266 268 266 264 262 261 263 269 268
306 312 307 306 315 320 312 299 284 263 254 245 250 258 251 248 254 260 266 262 257 255 254 262 266 272 273 272 273 274 276 275 279 284 286 285 282 280 275 268 265 264 261 261 260 256 252 252 249 250 251 251 251 250 245 240 233 234 235 236 238 240 240 242 245 247 249 251 256 259 252 250 243 252 258 262 264 265 267 265 263 261 260 267 266
307 304 299 299 306 309 296 278 260 251 245 242 243 239 245 253 256 249 252 252 261 272 274 272 270 272 274 270 272 275 277 278 283 288 289 285 282 279 274 268 264 263 261 257 257 254 250 246 246 247 248 249 251 250 248 242 237 233 234 235 238 239 240 241 243 246 249 252 256 262 256 252 248 243 253 258 262 263 262 265 264 263 262 252 258
302 303 295 300 294 284 275 260 247 239 233 228 233 234 249 262 264 260 255 269 266 269 273 272 273 267 265 267 272 277 279 284 289 290 287 284 281 278 272 266 264 262 262 258 253 251 247 242 241 243 245 248 251 251 247 242 235 232 233 237 239 242 242 242 243 246 248 250 252 259 262 258 254 246 252 253 257 261 259 259 264 265 263 nan nan
305 302 301 294 281 271 267 254 257 249 231 221 240 228 228 259 273 269 266 274 272 269 270 271 269 265 263 268 275 273 279 285 289 286 283 278 273 268 265 263 263 264 263 258 254 249 244 239 237 239 243 247 251 250 247 246 240 235 235 239 241 242 243 244 245 247 249 249 252 258 262 262 258 255 249 253 257 258 257 253 257 262 265 266 263
301 303 301 287 267 269 260 258 244 242 249 242 225 213 199 219 269 273 280 279 275 270 266 264 258 251 267 277 276 277 276 277 279 281 280 283 283 275 265 262 262 262 262 260 257 252 245 239 232 235 241 246 250 250 250 249 245 245 240 241 242 243 244 244 246 247 249 251 253 256 263 266 264 260 255 253 250 256 259 258 257 254 261 264 264
310 308 284 267 251 258 282 268 254 259 262 259 252 237 199 195 255 272 281 278 273 265 261 258 256 271 295 281 265 273 283 284 287 287 288 287 281 273 268 266 263 259 260 261 260 254 251 245 239 237 237 242 250 250 248 249 246 245 244 242 240 240 242 244 245 247 248 251 253 257 261 267 270 265 262 258 258 255 257 260 260 258 254 257 261
307 302 279 260 249 279 273 268 270 274 268 264 244 256 265 247 261 277 279 276 272 274 279 265 275 306 291 274 272 289 288 279 292 293 296 294 282 276 271 265 263 260 259 261 260 258 254 252 248 242 243 244 247 249 246 243 243 239 235 240 236 237 239 242 244 246 247 250 252 255 259 266 269 273 266 265 264 260 257 257 263 262 259 256 257
316 304 292 304 284 266 262 269 283 274 267 262 255 253 273 281 276 275 273 273 268 281 286 277 287 317 299 282 299 306 286 291 297 303 301 300 290 286 278 269 265 263 263 265 263 259 257 255 253 249 247 246 249 248 243 238 236 235 232 230 231 232 236 240 242 244 246 248 250 252 255 259 262 263 267 269 263 263 261 259 264 265 264 261 258
326 324 321 303 286 276 288 283 282 289 288 279 272 269 279 290 282 274 272 267 276 294 286 285 297 307 299 295 315 328 321 310 289 294 304 302 296 285 274 268 268 268 270 270 265 260 257 258 256 256 253 250 250 248 243 240 236 234 230 227 229 233 233 236 241 244 249 250 252 255 255 256 256 258 259 261 266 261 260 261 260 259 267 265 263
343 342 330 317 322 310 301 280 277 290 279 271 267 274 282 283 277 275 269 274 283 299 296 287 297 300 297 301 322 322 317 316 312 306 302 300 295 279 266 261 269 271 271 272 268 262 256 254 254 255 257 256 257 256 251 249 244 240 233 229 229 229 233 237 241 246 250 253 257 258 258 258 257 257 256 255 256 260 258 261 261 262 261 267 265
339 342 349 343 343 329 307 290 282 282 277 262 258 277 283 279 274 266 267 277 289 297 297 293 298 300 303 304 315 319 314 309 307 301 295 294 290 279 266 261 266 269 268 269 267 260 256 254 252 250 251 256 257 259 257 257 255 249 241 234 230 231 233 234 238 242 248 252 256 260 260 260 259 258 258 255 256 257 266 258 263 265 264 263 264
338 356 358 347 355 342 316 292 277 268 260 270 288 281 274 270 266 264 270 276 284 293 297 299 302 308 313 310 313 309 304 300 286 281 289 287 280 274 266 258 259 263 264 265 264 261 257 254 254 250 253 261 262 264 265 262 262 260 252 242 235 233 232 235 239 240 244 248 251 251 252 253 255 252 248 248 252 258 259 269 267 267 268 267 263
299 325 331 338 353 358 293 282 275 272 269 277 276 270 270 262 264 272 275 278 284 289 296 301 303 307 310 312 309 305 302 293 289 289 287 286 281 275 271 263 258 260 264 265 263 261 257 253 254 256 256 257 262 263 264 265 262 260 258 251 244 241 238 237 240 242 242 241 244 246 248 248 248 252 264 266 256 248 255 258 262 262 269 273 265
261 263 320 327 338 342 269 264 270 273 272 271 274 273 272 273 273 272 274 277 283 287 290 292 297 300 306 311 307 301 294 291 290 292 286 281 281 281 277 269 263 260 261 260 259 258 260 260 256 258 262 262 260 264 264 265 262 262 259 249 241 239 241 241 241 243 242 243 244 250 256 257 262 266 257 260 264 259 257 260 261 262 258 268 265
266 285 318 337 335 333 283 265 265 271 271 272 276 279 278 276 273 279 281 283 283 285 285 286 288 290 297 299 295 291 290 289 285 282 278 274 274 276 274 268 263 260 258 254 255 259 259 258 257 256 264 268 265 264 265 266 266 264 266 256 248 245 247 245 243 243 244 244 246 249 253 257 260 260 260 258 262 269 264 260 262 262 261 256 265
269 282 316 322 310 307 293 271 269 275 277 283 282 286 288 286 284 286 284 284 286 285 283 282 282 285 291 289 285 282 286 288 285 283 277 269 269 270 268 263 260 259 258 256 257 260 262 258 258 257 257 268 267 266 266 262 259 277 278 265 255 254 254 254 251 250 246 247 249 252 253 255 258 263 266 266 266 265 265 264 263 262 261 261 255
269 275 279 277 278 284 279 275 278 281 284 288 290 292 287 273 274 276 278 274 267 271 276 275 277 279 280 285 282 281 284 284 285 281 275 271 269 267 264 262 261 263 265 261 257 258 256 257 256 258 265 263 267 265 265 260 272 270 265 268 265 262 260 260 260 254 252 251 252 256 259 260 259 261 263 266 265 265 266 267 267 264 264 261 256
262 255 260 270 257 256 261 263 275 280 285 287 284 279 276 271 266 269 263 269 280 277 275 277 277 278 276 273 273 274 283 286 288 287 282 276 270 268 267 264 262 261 260 261 259 257 256 255 256 259 265 269 267 268 269 270 270 283 280 281 276 265 266 269 262 259 256 257 253 254 256 259 262 264 267 267 270 270 269 267 267 268 nan nan nan
269 260 261 261 250 258 261 269 269 273 275 281 278 279 279 275 273 270 272 273 277 279 278 275 275 277 nan nan nan nan 283 288 294 292 288 283 278 274 272 270 268 265 264 265 264 263 261 257 255 257 257 259 268 267 268 268 279 271 283 283 277 275 271 272 274 267 258 262 258 259 258 258 259 262 266 268 269 270 269 267 266 266 265 263 nan
278 265 257 257 261 261 267 268 268 273 280 283 284 283 283 285 286 286 284 282 283 283 278 277 279 278 nan nan nan nan 291 290 291 295 291 289 284 280 276 273 270 269 268 268 270 270 269 266 262 258 258 254 262 270 272 270 275 273 271 270 264 261 278 281 280 276 268 264 265 262 262 262 262 263 264 267 268 267 265 265 nan nan nan 261 nan
271 264 264 264 268 270 274 279 278 277 279 282 285 279 281 285 290 289 289 290 290 278 267 nan 271 nan nan nan nan nan nan 290 287 289 291 290 287 283 278 272 269 268 267 266 267 268 268 267 264 263 262 265 268 272 275 277 278 276 276 273 264 259 276 288 284 281 279 nan nan 264 264 264 nan nan nan nan nan 267 nan nan nan nan nan nan nan
266 273 276 278 286 283 278 276 269 272 272 276 280 277 280 280 280 280 283 287 290 284 273 nan nan nan nan nan nan nan nan 284 283 283 286 289 289 287 283 278 273 269 266 264 263 263 263 262 263 263 266 267 272 272 278 281 281 279 279 277 283 283 277 272 279 284 285 nan nan nan nan nan nan nan nan nan nan nan nan nan nan nan nan nan nan
279 287 291 288 281 276 270 263 259 258 260 267 273 273 273 280 278 277 274 269 276 277 nan nan nan nan nan nan nan nan nan nan 273 274 280 286 289 288 284 277 272 268 264 264 262 262 263 263 265 266 265 267 269 271 277 281 278 280 280 281 281 280 280 277 278 281 285 nan nan nan nan nan nan nan nan nan nan nan nan nan nan nan nan nan nan
268 276 277 274 270 267 263 259 251 250 256 266 267 270 270 271 273 274 276 275 276 276 nan nan nan nan nan nan nan nan nan nan nan nan 276 281 281 279 277 274 271 267 262 261 261 262 262 262 261 262 265 267 267 272 274 275 272 276 277 276 279 280 281 281 279 281 283 nan nan nan nan nan nan nan nan nan nan nan nan nan nan nan nan nan nan
267 270 269 270 268 266 263 256 252 252 259 264 267 268 269 271 275 277 278 280 281 280 nan nan nan nan nan nan nan nan nan nan nan nan nan nan 275 270 269 269 268 267 266 265 261 259 260 261 261 263 265 268 268 269 271 270 270 272 273 274 274 275 276 279 280 281 nan nan nan nan nan nan nan nan nan nan nan nan nan nan nan nan nan nan nan